This demonstration page uses our WeatherBlox Daily Observations layout. Learn more.

Left ArrowRight Arrow

38.80484, -77.04692

Hourly Observations for July 21, 2018

Temp ( °F °C ) Dew Point ( °F °C ) Humidity (%) Winds ( mph kmh ) Pressure ( in mb ) Visibility ( mi km ) Precip ( " mm )
12:52 am 00:52 Cloudy 75 23.9 64 17.8 69 69 ESE 7 11 30.04 1017 10 16 0.00 0.00
1:52 am 01:52 Cloudy 74 23.3 64 17.8 71 71 ESE 9 15 30.03 1017 10 16 0.00 0.00
2:52 am 02:52 Cloudy 74 23.3 65 18.3 74 74 ESE 8 13 30.02 1017 10 16 0.00 0.03
3:52 am 03:52 Cloudy 74 23.3 65 18.3 74 74 E 8 13 29.99 1016 10 16 0.00 0.00
4:44 am 04:44 Cloudy 74 23.3 66 18.9 76 76 ENE 8 13 30.00 1016 10 16 0.00 0.00
4:52 am 04:52 Cloudy 74 23.3 66 18.9 76 76 ENE 8 13 29.98 1015 10 16 0.00 0.00
5:15 am 05:15 Cloudy 74 23.3 66 18.9 76 76 E 9 15 29.97 1015 10 16 0.00 0.00
5:52 am 05:52 Cloudy 74 23.3 66 18.9 76 76 ESE 8 13 29.98 1015 10 16 0.00 0.00
6:52 am 06:52 Cloudy 74 23.3 67 19.4 79 79 E 9 15 29.96 1015 10 16 0.00 0.00
7:52 am 07:52 Cloudy 74 23.3 68 20 82 82 E 9 15 29.96 1015 10 16 0.00 0.00
8:52 am 08:52 Cloudy 75 23.9 68 20 79 79 E 12 19 29.96 1015 10 16 0.00 0.03
9:52 am 09:52 Cloudy 74 23.3 66 18.9 76 76 E 10 17 29.97 1015 10 16 0.00 0.00
10:13 am 10:13 Cloudy with Light Rain 73 22.8 65 18.3 76 76 ENE 10 17 29.97 1015 5 8 0.00 0.03
10:52 am 10:52 Cloudy with Rain 71 21.7 65 18.3 81 81 NE 10 17 29.96 1015 4 6 0.02 0.51
11:52 am 11:52 Cloudy with Heavy Rain 70 21.1 65 18.3 84 84 NNE 13 20 29.94 1014 3 5 0.15 3.81
12:01 pm 12:01 Cloudy with Heavy Rain 70 21.1 65 18.3 84 84 NNE 14 22 29.94 1014 2 3 0.06 1.52
12:09 pm 12:09 Cloudy with Heavy Rain 70 21.1 66 18.9 87 87 NNE 14 22 29.94 1014 2 3 0.14 3.56
12:18 pm 12:18 Cloudy with Heavy Rain 70 21.1 66 18.9 87 87 N 15 24 29.94 1014 3 5 0.19 4.83
12:30 pm 12:30 Cloudy with Rain 70 21.1 65 18.3 84 84 NNE 12 19 29.94 1014 4 6 0.22 5.59
12:36 pm 12:36 Cloudy with Heavy Rain 70 21.1 66 18.9 87 87 NNE 13 20 29.94 1014 3 4 0.25 6.35
12:52 pm 12:52 Cloudy with Rain 70 21.1 66 18.9 87 87 NNE 13 20 29.91 1013 3 5 0.34 8.64
12:59 pm 12:59 Cloudy with Rain 70 21.1 67 19.4 90 90 NNE 14 22 29.91 1013 4 6 0.01 0.25
1:19 pm 13:19 Cloudy with Rain 71 21.7 67 19.4 87 87 NNE 17 28 29.91 1013 5 8 0.04 1.02
1:47 pm 13:47 Cloudy with Heavy Rain 70 21 66 19 88 88 NNE 21 33 29.88 1012 3 4 0.12 3.05
1:52 pm 13:52 Cloudy with Heavy Rain 70 21.1 67 19.4 90 90 NNE 20 31 29.88 1012 3 4 0.14 3.56
2:03 pm 14:03 Cloudy with Heavy Rain 70 21.1 67 19.4 90 90 NNE 18 30 29.88 1012 3 5 0.06 1.52
2:48 pm 14:48 Cloudy with Rain 70 21 66 19 88 88 NNE 20 31 29.85 1011 4 6 0.22 5.59
2:52 pm 14:52 Cloudy with Rain 69 20.6 66 18.9 90 90 NNE 18 30 29.84 1011 5 8 0.23 5.84
3:06 pm 15:06 Cloudy with Rain 69 20.6 65 18.3 87 87 NNE 22 35 29.83 1010 6 10 0.02 0.51
3:39 pm 15:39 Cloudy with Heavy Rain 69 20.6 66 18.9 90 90 NNE 22 35 29.83 1010 3 4 0.14 3.56
3:44 pm 15:44 Cloudy with Heavy Rain 69 20.6 66 18.9 90 90 NNE 24 39 29.80 1009 2 3 0.18 4.57
3:52 pm 15:52 Cloudy with Heavy Rain 69 20.6 66 18.9 90 90 N 23 37 29.80 1009 1 2 0.26 6.60
3:54 pm 15:54 Cloudy with Heavy Rain 69 20.6 66 18.9 90 90 NNE 20 31 29.80 1009 1 2 0.02 0.51
3:59 pm 15:59 Cloudy with Light Rain 69 20.6 66 18.9 90 90 NNE 18 30 29.80 1009 3 4 0.03 0.76
4:01 pm 16:01 Cloudy with Light Rain 70 21.1 66 18.9 87 87 NNE 20 31 29.80 1009 4 6 0.04 1.02
4:03 pm 16:03 Cloudy with Light Rain 70 21.1 66 18.9 87 87 NNE 20 31 29.80 1009 7 11 0.04 1.02
4:23 pm 16:23 Cloudy with Heavy Rain 70 21.1 66 18.9 87 87 NNE 21 33 29.80 1009 3 4 0.07 1.78
4:29 pm 16:29 Cloudy with Heavy Rain 70 21.1 66 18.9 87 87 NNE 20 31 29.80 1009 2 3 0.12 3.05
4:43 pm 16:43 Cloudy with Heavy Rain 70 21.1 66 18.9 87 87 NNE 23 37 29.77 1008 1 2 0.28 7.11
4:52 pm 16:52 Cloudy with Heavy Rain 70 21.1 67 19.4 90 90 NNE 22 35 29.77 1008 2 2 0.37 9.40
4:55 pm 16:55 Cloudy with Heavy Rain 70 21.1 67 19.4 90 90 N 22 35 29.77 1008 2 3 0.02 0.51
5:02 pm 17:02 Cloudy with Rain 70 21.1 66 18.9 87 87 NNE 22 35 29.77 1008 3 5 0.05 1.27
5:07 pm 17:07 Cloudy with Heavy Rain 70 21.1 66 18.9 87 87 NNE 20 31 29.77 1008 3 5 0.07 1.78
5:09 pm 17:09 Cloudy with Heavy Rain 70 21.1 66 18.9 87 87 NNE 18 30 29.77 1008 3 4 0.08 2.03
5:16 pm 17:16 Cloudy with Heavy Rain 70 21.1 66 18.9 87 87 N 20 31 29.77 1008 2 3 0.12 3.05
5:20 pm 17:20 Cloudy with Heavy Rain 70 21.1 67 19.4 90 90 NNE 20 31 29.77 1008 3 4 0.14 3.56
5:27 pm 17:27 Cloudy with Heavy Rain 70 21.1 67 19.4 90 90 NNE 20 31 29.77 1008 1 2 0.17 4.32
5:32 pm 17:32 Cloudy with Heavy Rain 70 21.1 67 19.4 90 90 NNE 21 33 29.77 1008 1 1 0.32 8.13
5:37 pm 17:37 Cloudy with Heavy Rain 70 21.1 67 19.4 90 90 NNE 21 33 29.77 1008 1 2 0.38 9.65
5:39 pm 17:39 Cloudy with Heavy Rain 70 21.1 67 19.4 90 90 NNE 20 31 29.77 1008 1 2 0.39 9.91
5:41 pm 17:41 Cloudy with Heavy Rain 70 21.1 67 19.4 90 90 NNE 21 33 29.74 1007 2 2 0.40 10.16
5:52 pm 17:52 Cloudy with Rain 70 21.1 67 19.4 90 90 NNE 20 31 29.75 1007 2 3 0.45 11.43
5:59 pm 17:59 Cloudy with Light Rain 70 21.1 67 19.4 90 90 NNE 20 31 29.74 1007 2 3 0.02 0.51
6:04 pm 18:04 Cloudy with Light Rain 70 21.1 67 19.4 90 90 NNE 18 30 29.74 1007 3 5 0.03 0.76
6:07 pm 18:07 Cloudy with Rain 71 21.7 67 19.4 87 87 NNE 16 26 29.74 1007 3 4 0.03 0.76
6:13 pm 18:13 Cloudy with Rain 70 21.1 67 19.4 90 90 NNE 17 28 29.74 1007 2 3 0.06 1.52
6:18 pm 18:18 Cloudy with Heavy Rain 70 21.1 67 19.4 90 90 NNE 16 26 29.74 1007 1 2 0.13 3.30
6:27 pm 18:27 Cloudy with Heavy Rain 70 21.1 67 19.4 90 90 NNE 17 28 29.74 1007 2 3 0.18 4.57
6:30 pm 18:30 Cloudy with Heavy Rain 71 21.7 68 20 90 90 NNE 20 31 29.74 1007 2 3 0.20 5.08
6:52 pm 18:52 Cloudy with Heavy Rain 71 21.7 68 20 90 90 NNE 15 24 29.73 1007 3 5 0.30 7.62
6:55 pm 18:55 Cloudy with Heavy Rain 71 21.7 68 20 90 90 NNE 16 26 29.74 1007 3 4 0.01 0.25
6:57 pm 18:57 Cloudy with Heavy Rain 71 21.7 68 20 90 90 NNE 17 28 29.74 1007 3 4 0.03 0.76
7:00 pm 19:00 Cloudy with Heavy Rain 71 21.7 68 20 90 90 NNE 16 26 29.74 1007 3 4 0.04 1.02
7:04 pm 19:04 Cloudy with Heavy Rain 71 21.7 67 19.4 87 87 NNE 16 26 29.74 1007 2 3 0.06 1.52
7:27 pm 19:27 Cloudy with Heavy Rain 71 21.7 68 20 90 90 NNE 15 24 29.74 1007 2 3 0.18 4.57
7:31 pm 19:31 Cloudy with Heavy Rain 71 21.7 68 20 90 90 NNE 16 26 29.74 1007 2 3 0.21 5.33
7:40 pm 19:40 Cloudy with Heavy Rain 71 21.7 68 20 90 90 NNE 14 22 29.74 1007 2 3 0.28 7.11
7:43 pm 19:43 Cloudy with Heavy Rain 71 21.7 68 20 90 90 NNE 16 26 29.74 1007 3 4 0.30 7.62
7:47 pm 19:47 Cloudy with Heavy Rain 72 22 68 20 88 88 NNE 18 30 29.71 1006 2 3 0.33 8.38
7:52 pm 19:52 Cloudy with Heavy Rain 71 21.7 68 20 90 90 NNE 17 28 29.72 1006 1 2 0.40 10.16
8:00 pm 20:00 Cloudy with Heavy Rain 71 21.7 68 20 90 90 NNE 16 26 29.71 1006 1 2 0.13 3.30
8:06 pm 20:06 Cloudy with Heavy Rain 71 21.7 68 20 90 90 NNE 15 24 29.71 1006 3 4 0.19 4.83
8:08 pm 20:08 Cloudy with Heavy Rain 71 21.7 68 20 90 90 NNE 15 24 29.71 1006 3 5 0.20 5.08
8:40 pm 20:40 Cloudy with Heavy Rain 71 21.7 68 20 90 90 NNE 15 24 29.71 1006 3 4 0.41 10.41
8:47 pm 20:47 Cloudy with Heavy Rain 70 21 68 20 94 94 N 17 28 29.74 1007 2 3 0.52 13.21
8:50 pm 20:50 Cloudy with Heavy Rain 70 21 68 20 94 94 N 17 28 29.71 1006 2 2 0.59 14.99
8:52 pm 20:52 Cloudy with Heavy Rain 70 21.1 68 20 93 93 N 17 28 29.72 1006 2 2 0.65 16.51
8:54 pm 20:54 Cloudy with Heavy Rain 70 21.1 67 19.4 90 90 N 18 30 29.71 1006 2 2 0.04 1.02
9:00 pm 21:00 Cloudy with Heavy Rain 70 21.1 67 19.4 90 90 N 20 31 29.71 1006 2 3 0.13 3.30
9:04 pm 21:04 Cloudy with Heavy Rain 70 21.1 67 19.4 90 90 N 20 31 29.71 1006 3 4 0.19 4.83
9:08 pm 21:08 Cloudy with Heavy Rain 70 21.1 67 19.4 90 90 N 17 28 29.71 1006 3 5 0.22 5.59
9:12 pm 21:12 Cloudy with Heavy Rain 70 21.1 67 19.4 90 90 N 20 31 29.71 1006 4 6 0.24 6.10
9:14 pm 21:14 Cloudy with Heavy Rain 70 21.1 67 19.4 90 90 N 17 28 29.71 1006 4 6 0.25 6.35
9:24 pm 21:24 Cloudy with Heavy Rain 70 21.1 67 19.4 90 90 N 22 35 29.71 1006 3 5 0.33 8.38
9:43 pm 21:43 Cloudy with Heavy Rain 70 21.1 67 19.4 90 90 NNE 21 33 29.68 1005 4 6 0.43 10.92
9:48 pm 21:48 Cloudy with Heavy Rain 70 21 66 19 88 88 N 22 35 29.68 1005 4 6 0.46 11.68
9:52 pm 21:52 Cloudy with Rain 70 21.1 66 18.9 87 87 N 20 31 29.68 1005 5 8 0.48 12.19
10:12 pm 22:12 Cloudy with Heavy Rain 70 21.1 66 18.9 87 87 N 18 30 29.68 1005 5 8 0.07 1.78
10:14 pm 22:14 Cloudy with Heavy Rain 70 21.1 66 18.9 87 87 N 17 28 29.68 1005 5 8 0.08 2.03
10:20 pm 22:20 Cloudy with Heavy Rain 70 21.1 66 18.9 87 87 N 18 30 29.68 1005 5 8 0.11 2.79
10:43 pm 22:43 Cloudy with Rain 69 20.6 66 18.9 90 90 N 17 28 29.68 1005 8 13 0.20 5.08
10:52 pm 22:52 Cloudy with Light Rain 69 20.6 66 18.9 90 90 N 14 22 29.67 1005 10 16 0.20 5.08
11:52 pm 23:52 Cloudy 69 20.6 64 17.8 84 84 NW 15 24 29.65 1004 10 16 0.01 0.25

Powered by AerisWeather